Weather History for KGRF - March, 2013

Change the Weather History Date:

Sunday, March 3, 2013

  Actual Average Record
Temperature  
Mean Temperature 39 °F -  
Max Temperature 47 °F 49 °F 59 °F (2002)
Min Temperature 31 °F 33 °F 24 °F (2006)
Degree Days  
Heating Degree Days 26    
Moisture  
Dew Point 33 °F    
Average Humidity 80    
Maximum Humidity 98    
Minimum Humidity 53    
Precipitation  
Precipitation 0.00 in - - ()
Sea Level Pressure  
Sea Level Pressure 30.28 in    
Wind  
Wind Speed 2 mph (SSW)    
Max Wind Speed 8 mph    
Max Gust Speed -    
Visibility 10 miles    
Events      
Averages and records for this station are not official NWS values.
T = Trace of Precipitation, MM = Missing Value Source: NWS Daily Summary

Daily Weather History Graph

Daily Weather History Graph

Search for Another Location

Airport or City:

Trip Planner

Search our weather history database for the weather conditions in past years. The results will help you decide how hot, cold, wet, or windy it might be!

Date:

Astronomy

Mar. 03, 2013 Rise Set
Actual Time 6:45 AM PST 5:59 PM PST
Civil Twilight 6:15 AM PST 6:29 PM PST
Nautical Twilight 5:40 AM PST 7:05 PM PST
Astronomical Twilight 5:04 AM PST 7:40 PM PST
Moon 12:08 AM PST (3/3) 9:39 AM PST (3/3)
Length of Visible Light 12h 14m
Length of Day
11h 13m
Waning Gibbous, 62% of the Moon is Illuminated
Mar 3
Waning Gibbous
Mar 4
Last Quarter
Mar 11
New
Mar 19
First Quarter
Mar 27
Full

Hourly Weather History & Observations

Time (PST) Temp. Windchill Dew Point Humidity Pressure Visibility Wind Dir Wind Speed Gust Speed Precip Events Conditions
12:58 AM 36.9 °F 34.3 °F 33.1 °F 86% 30.24 in 10.0 mi SSW 3.5 mph - N/A   Clear
1:58 AM 34.2 °F - 31.8 °F 91% 30.26 in 10.0 mi Calm Calm - N/A   Clear
2:58 AM 35.1 °F 30.1 °F 33.3 °F 93% 30.25 in 10.0 mi SSW 5.8 mph - N/A   Clear
3:58 AM 37.0 °F 31.0 °F 33.4 °F 87% 30.25 in 10.0 mi SSW 8.1 mph - N/A   Clear
4:58 AM 34.9 °F - 32.5 °F 91% 30.26 in 10.0 mi Calm Calm - N/A   Clear
5:58 AM 33.6 °F - 32.0 °F 94% 30.27 in 10.0 mi Calm Calm - N/A   Clear
6:58 AM 31.6 °F - 30.4 °F 95% 30.28 in 10.0 mi SSW 2.3 mph - N/A   Scattered Clouds
7:58 AM 33.1 °F - 32.5 °F 98% 30.30 in 10.0 mi Calm Calm - N/A   Partly Cloudy
8:58 AM 39.6 °F - 35.1 °F 84% 30.29 in 10.0 mi SSW 2.3 mph - N/A   Partly Cloudy
9:38 AM 41.0 °F - 33.8 °F 76% 30.27 in 10.0 mi SW 2.3 mph - N/A   Mostly Cloudy
9:43 AM 41.0 °F - 33.8 °F 76% 30.27 in 10.0 mi SSW 2.3 mph - N/A   Scattered Clouds
9:58 AM 41.4 °F - 33.6 °F 74% 30.30 in 10.0 mi Calm Calm - N/A   Mostly Cloudy
10:08 AM 42.8 °F 41.1 °F 33.8 °F 70% 30.28 in 10.0 mi SSW 3.5 mph - N/A   Scattered Clouds
10:13 AM 42.8 °F - 35.6 °F 76% 30.28 in 10.0 mi Calm Calm - N/A   Mostly Cloudy
10:23 AM 42.8 °F - 35.6 °F 76% 30.28 in 10.0 mi Calm Calm - N/A   Scattered Clouds
10:58 AM 43.0 °F 41.3 °F 33.4 °F 69% 30.29 in 10.0 mi SSW 3.5 mph - N/A   Clear
11:58 AM 46.0 °F 44.8 °F 32.7 °F 60% 30.29 in 10.0 mi SSW 3.5 mph - N/A   Scattered Clouds
12:58 PM 47.8 °F - 31.3 °F 53% 30.28 in 10.0 mi SSW 4.6 mph - N/A   Partly Cloudy
7:55 PM 44.6 °F - 32.0 °F 61% 30.28 in 10.0 mi SSW 2.3 mph - N/A   Overcast
8:55 PM 41.0 °F - 32.0 °F 70% 30.28 in 10.0 mi SSW 2.3 mph - N/A   Scattered Clouds
9:55 PM 37.0 °F - 32.9 °F 85% 30.30 in 10.0 mi Calm Calm - N/A   Scattered Clouds
10:55 PM 36.1 °F - 33.3 °F 89% 30.30 in 10.0 mi Calm Calm - N/A   Overcast
11:55 PM 35.4 °F - 32.7 °F 90% 30.30 in 10.0 mi Calm Calm - N/A   Clear